Showing default

OPS 9312 (IDSCS 2), 2216

Orbit data source: Space-Track

OPS 9312 (IDSCS 2), 2216 is a payload satellite owned by USAF SSD (US) in GEO that was launched on Thu, 16 Jun 1966 UTC via a TITAN IIIC launch vehicle from the Air Force Eastern Test Range (AFETR). Payload-class satellites include a variety of spacecraft equipped with specific instruments for various scientific and technological missions. These include communications satellites like Starlink; space stations such as the ISS; scientific satellites like the Hubble; Earth observation satellites from companies like Planet Labs, Umbra, and HawkEye 360; GPS; miniature CubeSats for education and research; and military/defense satellites.

Not visible in the next 10 days
Identifier
2216, 1966-053C
Orbit
GEO
Last TLE update
1 day ago
Origin
Manufacturer
Philco-Ford WDL
Mission
Non-operational Defense Communications
Bus & Motor
IDCSP, Unknown motor
Mass
45 kg wet, 45 kg dry
Launch date (UTC)
1966-06-16 (59 years ago)
Launch vehicle
TITAN IIIC
Launch site
Air Force Eastern Test Range (AFETR)
Object type
Payload
Rocket body
Debris
Shape & HBR
Ico Poly, 0.9 m
Radar Cross Section
0.926 m², Medium (>0.1 m² and < 1m²)

Expand to show TLE details & history

TLE from 1 day ago
0 OPS 9312 (IDSCS 2)
1 02216U 66053C   25180.78576616 -.00000080  00000-0  00000-0 0  9992
2 02216   8.0039  47.0986 0031478 207.8373 321.4514  1.07850624 45462
Epoch: 2025-06-29T18:51Z
TLE epoch observation values (Epoch: 2025-06-29T18:51:30.196Z)
Latitude
1.51449°
Longitude
15.30286°
Altitude
33,687.94 km
Speed
3.158 km/s
True Right ascension
14h 25m 08s
True Declination
1° 30' 46"
Sunlit
Object was in daylight at epoch
Visualization orbit readout
Latitude
-1.31571°
Longitude
-163.27631°
Altitude
33,887.223 km
Speed
3.142 km/s
Apparent Right ascension
02h 39m 50s
Apparent Declination
-6° 21' 11"
Sunlit
Object is in daylight
Visualization observer readout
Local Sidereal Time
15:55:20
Azimuth
31.802° NE
Elevation
-52.399°
Doppler factor
1
Orbital elements
Apogee altitude
33,914.909 km
Perigee altitude
33,662.036 km
Semi-major axis
40,166.61 km
Eccentricity
0.00315
Inclination
8.0039°
RAAN
47.0986°
Arg. of periapsis
207.8373°
True anomaly
Unknown
Mean anomaly
321.4514°
Eccentric anomaly
Unknown
Mean motion
0.26962 °/min
Orbital period
1,335.23 mins
BSTAR
0
Loading historical data...
2216 neighbors
Loading maneuver chart data...
Loading SW <> Apogee altitude chart data...
Loading historical data...
Loading historical data...
Loading historical data...
Loading historical data...
Loading historical data...
Loading historical data...
Loading historical data...

OPS 9312 (IDSCS 2) Visibility

Observer location: undefined°, undefined°

OPS 9312 (IDSCS 2) is likely not visible in the next few days
Span
Click to sort rows by Start time (UTC) header in descending order
Start Az.
Max El. time (UTC)
Max El. Az.
Max El.
End time (UTC)
End Az.
|